GW6170 Weather Reports


time (UTC)temp
C
wind
direction
speed
KPH
gust
KPH
rain 1hr
cm
rain 24hr
cm
rain mn
cm
humidity
%
barometer
mb
20260505172021 17 135 1.6 3.2 0.00 0.00 0.00 38 1015.3
20260505171516 17 210 3.2 3.2 0.00 0.00 0.00 44 1015.5
20260505171014 17 289 3.2 3.2 0.00 0.00 0.00 43 1015.3
20260505170510 17 166 1.6 1.6 0.00 0.00 0.00 48 1015.4
20260505170006 17 84 1.6 3.2 0.00 0.00 0.00 52 1015.3
20260505165502 17 270 3.2 3.2 0.00 0.00 0.00 55 1015.3
20260505164957 17 254 4.8 4.8 0.00 0.00 0.00 57 1015.5
20260505164454 17 331 0.0 1.6 0.00 0.00 0.00 54 1015.3
20260505163952 16 333 3.2 3.2 0.00 0.00 0.00 56 1015.3
20260505163450 16 97 1.6 1.6 0.00 0.00 0.00 59 1015.2
20260505162950 16 341 4.8 4.8 0.00 0.00 0.00 64 1015.3
20260505162445 16 304 3.2 3.2 0.00 0.00 0.00 60 1015.4
20260505161942 16 347 4.8 4.8 0.00 0.00 0.00 57 1015.4
20260505161438 16 280 1.6 3.2 0.00 0.00 0.00 59 1015.3
20260505160936 16 340 3.2 3.2 0.00 0.00 0.00 62 1015.2
20260505160434 15 32 3.2 3.2 0.00 0.00 0.00 60 1015.3
20260505152910 14 296 1.6 1.6 0.00 0.00 0.00 69 1015.2
20260505152408 14 263 3.2 3.2 0.00 0.00 0.00 70 1015.1
20260505151907 14 301 0.0 1.6 0.00 0.00 0.00 68 1015.3
20260505151404 14 314 3.2 3.2 0.00 0.00 0.00 68 1015.2
20260505150901 13 152 0.0 0.0 0.00 0.00 0.00 68 1015.1
20260505150359 13 215 1.6 1.6 0.00 0.00 0.00 69 1015.2
20260505140328 8 122 1.6 1.6 0.00 0.00 0.00 82 1014.9
20260505130252 2 113 4.8 4.8 0.00 0.00 0.00 93 1014.3
20260505124742 2 102 4.8 4.8 0.00 0.00 0.00 91 1014.1
20260505124239 3 96 4.8 4.8 0.00 0.00 0.00 89 1014.2
20260505123734 3 93 3.2 3.2 0.00 0.00 0.00 89 1014.0
20260505123231 5 108 0.0 1.6 0.00 0.00 0.00 88 1013.9
20260505122728 4 125 1.6 1.6 0.00 0.00 0.00 91 1014.0
20260505122225 5 137 1.6 1.6 0.00 0.00 0.00 88 1014.1
20260505121722 6 135 1.6 1.6 0.00 0.00 0.00 84 1013.7
20260505121219 6 127 1.6 1.6 0.00 0.00 0.00 85 1013.9
20260505120715 6 165 1.6 3.2 0.00 0.00 0.00 86 1013.9
20260505120211 6 148 1.6 1.6 0.00 0.00 0.00 84 1013.6
20260505115704 6 170 3.2 3.2 0.00 0.00 0.00 83 1013.7
20260505115202 6 174 4.8 4.8 0.00 0.00 0.00 82 1013.7
20260505114659 6 155 3.2 3.2 0.00 0.00 0.00 86 1013.6
20260505114155 6 155 1.6 1.6 0.00 0.00 0.00 84 1013.9
20260505113652 5 151 3.2 3.2 0.00 0.00 0.00 86 1013.9
20260505113149 5 134 3.2 3.2 0.00 0.00 0.00 89 1013.6
20260505112645 3 150 3.2 3.2 0.00 0.00 0.00 89 1013.9
20260505112143 2 123 4.8 4.8 0.00 0.00 0.00 94 1014.0
20260505111642 2 109 4.8 4.8 0.00 0.00 0.00 93 1013.7
20260505111139 2 89 3.2 3.2 0.00 0.00 0.00 93 1013.9
20260505110635 3 103 4.8 4.8 0.00 0.00 0.00 88 1013.9
20260505110132 5 116 3.2 3.2 0.00 0.00 0.00 84 1013.9
20260505102108 7 152 1.6 1.6 0.00 0.00 0.00 80 1013.5
20260505101606 7 154 1.6 1.6 0.00 0.00 0.00 80 1013.4
20260505101102 7 157 1.6 3.2 0.00 0.00 0.00 79 1013.5
20260505100559 7 155 1.6 3.2 0.00 0.00 0.00 78 1013.6
20260505100056 7 165 3.2 3.2 0.00 0.00 0.00 78 1013.4
20260505095552 7 166 1.6 3.2 0.00 0.00 0.00 79 1013.4
20260505095049 7 146 3.2 3.2 0.00 0.00 0.00 76 1013.3
20260505094545 6 135 1.6 3.2 0.00 0.00 0.00 79 1013.2
20260505094041 7 132 0.0 0.0 0.00 0.00 0.00 76 1013.4
20260505093538 6 132 3.2 3.2 0.00 0.00 0.00 79 1013.4
20260505093036 4 126 4.8 4.8 0.00 0.00 0.00 86 1013.5
20260505092533 5 109 4.8 4.8 0.00 0.00 0.00 87 1013.2
20260505092031 4 144 4.8 4.8 0.00 0.00 0.00 85 1013.3
20260505091527 5 111 6.4 8.0 0.00 0.00 0.00 85 1013.4
20260505091026 5 83 3.2 3.2 0.00 0.00 0.00 85 1013.2
20260505090524 6 92 3.2 3.2 0.00 0.00 0.00 81 1013.3
20260505090021 6 108 4.8 4.8 0.00 0.00 0.00 84 1013.3
20260505085519 7 103 4.8 4.8 0.00 0.00 0.00 80 1013.2
20260505085017 7 95 0.0 0.0 0.00 0.00 0.00 77 1013.1
20260505084515 7 78 0.0 1.6 0.00 0.00 0.00 77 1013.5
20260505084012 7 70 1.6 1.6 0.00 0.00 0.00 79 1013.2
20260505083509 7 125 1.6 1.6 0.00 0.00 0.00 79 1013.2
20260505083006 7 123 0.0 0.0 0.00 0.00 0.00 79 1013.5
20260505082502 7 117 3.2 3.2 0.00 0.00 0.00 79 1013.2
20260505081959 8 96 1.6 1.6 0.00 0.00 0.00 77 1013.4
20260505081455 8 131 1.6 1.6 0.00 0.00 0.00 73 1013.2
20260505080952 7 117 0.0 0.0 0.00 0.00 0.00 77 1013.2
20260505080448 7 112 0.0 0.0 0.00 0.00 0.00 79 1013.2
20260505075943 7 117 3.2 3.2 0.00 0.00 0.00 78 1013.2
20260505075440 8 131 3.2 3.2 0.00 0.00 0.00 75 1013.1
20260505074938 6 127 4.8 4.8 0.00 0.00 0.00 82 1013.2
20260505074436 7 112 3.2 3.2 0.00 0.00 0.00 80 1013.3
20260505073932 9 146 1.6 3.2 0.00 0.00 0.00 72 1013.2
20260505073430 8 129 3.2 3.2 0.00 0.00 0.00 77 1013.1
20260505072927 5 123 6.4 8.0 0.00 0.00 0.00 86 1013.1
20260505072423 7 129 4.8 4.8 0.00 0.00 0.00 81 1013.1
20260505071919 7 126 4.8 4.8 0.00 0.00 0.00 81 1013.1
20260505071415 6 87 1.6 1.6 0.00 0.00 0.00 81 1013.1
20260505070914 8 102 1.6 1.6 0.00 0.00 0.00 76 1013.1
20260505070410 9 60 3.2 3.2 0.00 0.00 0.00 74 1012.8
20260505065905 9 109 0.0 1.6 0.00 0.00 0.00 72 1012.9
20260505065402 8 78 0.0 1.6 0.00 0.00 0.00 74 1012.9
20260505064859 8 77 3.2 3.2 0.00 0.00 0.00 76 1012.9
20260505064356 9 26 3.2 3.2 0.00 0.00 0.00 73 1012.8
20260505063855 10 150 0.0 1.6 0.00 0.00 0.00 69 1012.8
20260505063355 10 168 3.2 3.2 0.00 0.00 0.00 71 1012.8
20260505062852 11 163 3.2 3.2 0.00 0.00 0.00 70 1012.8
20260505062349 11 157 3.2 3.2 0.00 0.00 0.00 67 1012.9
20260505061846 12 192 1.6 3.2 0.00 0.00 0.00 63 1013.1
20260505061344 11 161 1.6 1.6 0.00 0.00 0.00 64 1012.8
20260505060842 10 176 1.6 1.6 0.00 0.00 0.00 66 1012.7
20260505060338 10 161 1.6 1.6 0.00 0.00 0.00 68 1012.7
20260505055834 11 172 1.6 3.2 0.00 0.00 0.00 68 1012.9
20260505055330 11 168 1.6 3.2 0.00 0.00 0.00 68 1012.7
20260505054828 11 148 0.0 0.0 0.00 0.00 0.00 67 1012.7
20260505054325 11 147 1.6 3.2 0.00 0.00 0.00 66 1012.6
20260505053823 10 163 3.2 3.2 0.00 0.00 0.00 69 1012.8
20260505053320 10 157 1.6 3.2 0.00 0.00 0.00 69 1012.7
20260505052817 11 145 0.0 1.6 0.00 0.00 0.00 68 1012.7
20260505052314 11 166 6.4 8.0 0.00 0.00 0.00 68 1012.7
20260505051810 10 174 4.8 4.8 0.00 0.00 0.00 69 1012.8
20260505051308 11 181 8.0 9.7 0.00 0.00 0.00 68 1012.7
20260505050806 11 156 4.8 4.8 0.00 0.00 0.00 69 1012.8
20260505050305 11 153 4.8 4.8 0.00 0.00 0.00 68 1012.7
20260505041734 13 150 1.6 1.6 0.00 0.00 0.00 59 1012.8
20260505041231 12 149 3.2 3.2 0.00 0.00 0.00 58 1013.1
20260505040729 13 103 3.2 3.2 0.00 0.00 0.00 62 1013.1
20260505040226 14 129 0.0 0.0 0.00 0.00 0.00 60 1012.9
20260505035723 14 108 0.0 0.0 0.00 0.00 0.00 57 1012.8
20260505035219 15 160 1.6 1.6 0.00 0.00 0.00 57 1012.7
20260505034715 13 166 1.6 1.6 0.00 0.00 0.00 59 1012.8
20260505034212 14 146 1.6 1.6 0.00 0.00 0.00 59 1012.5
20260505033708 15 176 3.2 3.2 0.00 0.00 0.00 56 1012.7
20260505033207 16 142 0.0 0.0 0.00 0.00 0.00 54 1012.6
20260505032705 15 222 3.2 3.2 0.00 0.00 0.00 53 1012.4
20260505032200 15 148 1.6 1.6 0.00 0.00 0.00 55 1012.2
20260505031658 16 163 0.0 1.6 0.00 0.00 0.00 54 1012.3
20260505031154 16 174 1.6 1.6 0.00 0.00 0.00 52 1011.9
20260505030651 15 264 4.8 4.8 0.00 0.00 0.00 54 1012.2
20260505030147 16 182 1.6 1.6 0.00 0.00 0.00 53 1011.9
20260505025643 16 208 3.2 3.2 0.00 0.00 0.00 55 1011.7
20260505025142 16 219 3.2 3.2 0.00 0.00 0.00 55 1011.8
20260505024639 16 214 1.6 3.2 0.00 0.00 0.00 56 1011.7
20260505024136 16 167 3.2 3.2 0.00 0.00 0.00 55 1011.7
20260505023633 16 191 3.2 3.2 0.00 0.00 0.00 57 1011.6
20260505023131 17 170 3.2 3.2 0.00 0.00 0.00 54 1011.6
20260505022628 17 156 1.6 1.6 0.00 0.00 0.00 53 1011.3
20260505022125 17 3 1.6 1.6 0.00 0.00 0.00 53 1011.4
20260505021621 17 359 3.2 4.8 0.00 0.00 0.00 53 1011.3
20260505021118 17 351 3.2 3.2 0.00 0.00 0.00 53 1011.4
20260505020614 17 357 4.8 8.0 0.00 0.00 0.00 52 1011.6
20260505020110 18 344 4.8 4.8 0.00 0.00 0.00 51 1011.3
20260505015607 18 7 8.0 12.9 0.00 0.00 0.00 47 1011.3
20260505015104 19 1 4.8 4.8 0.00 0.00 0.00 49 1011.1
20260505014601 19 7 9.7 12.9 0.00 0.00 0.00 47 1011.0
20260505014058 20 44 12.9 14.5 0.00 0.00 0.00 45 1011.0
20260505013555 20 4 9.7 16.1 0.00 0.00 0.00 45 1011.3
20260505013052 20 316 8.0 11.3 0.00 0.00 0.00 46 1011.4
20260505012550 19 352 14.5 16.1 0.00 0.00 0.00 43 1011.3
20260505012047 18 348 8.0 11.3 0.00 0.00 0.00 47 1011.4
20260505011542 19 16 6.4 8.0 0.00 0.00 0.00 47 1011.1
20260505011040 19 343 14.5 16.1 0.00 0.00 0.00 46 1011.4
20260505010535 19 21 11.3 12.9 0.00 0.00 0.00 46 1011.5
20260505010032 20 350 16.1 20.9 0.00 0.00 0.00 42 1011.3
20260505005528 20 15 8.0 11.3 0.00 0.00 0.00 43 1011.3
20260505005026 19 306 11.3 12.9 0.00 0.00 0.00 44 1011.3
20260505004523 18 345 9.7 14.5 0.00 0.00 0.00 44 1011.1
20260505004019 19 343 9.7 12.9 0.00 0.00 0.00 44 1011.3
20260505003517 18 19 12.9 14.5 0.00 0.00 0.00 39 1011.3
20260505003014 18 40 12.9 16.1 0.00 0.00 0.00 44 1011.1
20260505002509 18 331 8.0 9.7 0.00 0.00 0.00 47 1011.4
20260505002008 19 343 9.7 12.9 0.00 0.00 0.00 48 1011.4
20260505001505 19 354 11.3 17.7 0.00 0.00 0.00 46 1011.0
20260505001002 19 10 12.9 16.1 0.00 0.00 0.00 45 1011.1
20260505000500 20 8 17.7 20.9 0.00 0.00 0.00 42 1011.3
20260504235956 20 350 14.5 20.9 0.00 0.00 0.00 42 1011.4
20260504235454 20 28 12.9 16.1 0.00 0.00 0.00 43 1010.9
20260504234950 20 8 12.9 14.5 0.00 0.00 0.00 42 1011.1
20260504234447 20 354 11.3 14.5 0.00 0.00 0.00 44 1011.0
20260504233944 20 5 9.7 12.9 0.00 0.00 0.00 43 1011.0
20260504233439 21 353 9.7 12.9 0.00 0.00 0.00 43 1010.9
20260504232937 21 347 6.4 8.0 0.00 0.00 0.00 41 1010.9
20260504232434 22 41 11.3 12.9 0.00 0.00 0.00 38 1010.8
20260504231931 22 278 12.9 14.5 0.00 0.00 0.00 36 1010.9
20260504231427 22 279 6.4 9.7 0.00 0.00 0.00 39 1011.1
20260504230923 22 328 6.4 8.0 0.00 0.00 0.00 34 1010.7
20260504230420 22 281 11.3 12.9 0.00 0.00 0.00 37 1011.0
20260504225919 22 232 20.9 32.2 0.00 0.00 0.00 39 1011.0
20260504225416 22 323 9.7 11.3 0.00 0.00 0.00 36 1011.0
20260504224913 22 260 8.0 11.3 0.00 0.00 0.00 38 1010.9
20260504224409 22 304 11.3 12.9 0.00 0.00 0.00 36 1011.1
20260504223907 22 298 9.7 11.3 0.00 0.00 0.00 41 1011.1
20260504223402 21 288 14.5 16.1 0.00 0.00 0.00 41 1011.3
20260504222858 22 304 8.0 9.7 0.00 0.00 0.00 39 1011.3
20260504222355 22 280 11.3 11.3 0.00 0.00 0.00 41 1011.3
20260504221854 22 295 9.7 12.9 0.00 0.00 0.00 39 1011.3
20260504221350 22 301 14.5 17.7 0.00 0.00 0.00 38 1011.5
20260504220848 22 299 6.4 8.0 0.00 0.00 0.00 37 1011.4
20260504220344 22 266 12.9 14.5 0.00 0.00 0.00 40 1011.5
20260504215841 22 258 19.3 22.5 0.00 0.00 0.00 40 1011.8
20260504215337 22 219 17.7 20.9 0.00 0.00 0.00 38 1011.6
20260504214834 22 243 8.0 9.7 0.00 0.00 0.00 39 1011.7
20260504214331 22 279 14.5 17.7 0.00 0.00 0.00 38 1011.9
20260504213827 21 255 9.7 11.3 0.00 0.00 0.00 43 1011.8
20260504213323 22 293 16.1 20.9 0.00 0.00 0.00 39 1011.9
20260504212821 22 253 14.5 17.7 0.00 0.00 0.00 39 1011.8
20260504212317 21 270 11.3 12.9 0.00 0.00 0.00 42 1011.9
20260504211815 22 230 8.0 9.7 0.00 0.00 0.00 41 1012.0
20260504211311 22 307 9.7 12.9 0.00 0.00 0.00 38 1011.9
20260504210808 21 246 4.8 4.8 0.00 0.00 0.00 36 1011.9
20260504210305 21 287 8.0 9.7 0.00 0.00 0.00 40 1011.8
20260504205803 21 238 3.2 3.2 0.00 0.00 0.00 38 1012.0
20260504205300 21 277 16.1 20.9 0.00 0.00 0.00 40 1012.3
20260504204758 21 282 11.3 14.5 0.00 0.00 0.00 41 1012.0
20260504204256 21 296 4.8 4.8 0.00 0.00 0.00 37 1012.0
20260504203755 21 288 6.4 9.7 0.00 0.00 0.00 35 1012.0
20260504203252 21 254 8.0 11.3 0.00 0.00 0.00 35 1012.2
20260504202752 21 308 4.8 8.0 0.00 0.00 0.00 34 1012.3
20260504202250 21 275 9.7 11.3 0.00 0.00 0.00 42 1012.2
20260504201747 21 232 17.7 20.9 0.00 0.00 0.00 36 1012.4
20260504201244 21 245 6.4 8.0 0.00 0.00 0.00 41 1012.3
20260504200742 21 266 8.0 9.7 0.00 0.00 0.00 36 1012.5
20260504200237 21 281 11.3 14.5 0.00 0.00 0.00 36 1012.6
20260504195734 21 239 14.5 16.1 0.00 0.00 0.00 34 1012.2
20260504195230 21 286 17.7 22.5 0.00 0.00 0.00 36 1012.3
20260504194727 21 280 9.7 12.9 0.00 0.00 0.00 32 1012.3
20260504194223 21 230 8.0 9.7 0.00 0.00 0.00 33 1012.4
20260504193720 20 229 8.0 9.7 0.00 0.00 0.00 38 1012.6
20260504193218 21 284 14.5 16.1 0.00 0.00 0.00 35 1012.6
20260504192716 21 296 9.7 11.3 0.00 0.00 0.00 36 1012.7
20260504192213 20 289 14.5 16.1 0.00 0.00 0.00 40 1012.6
20260504191712 20 235 11.3 14.5 0.00 0.00 0.00 41 1012.5
20260504191208 20 276 11.3 12.9 0.00 0.00 0.00 39 1012.6
20260504190703 21 272 8.0 9.7 0.00 0.00 0.00 43 1012.7
20260504190200 20 229 14.5 16.1 0.00 0.00 0.00 41 1012.8
20260504185657 20 256 11.3 12.9 0.00 0.00 0.00 43 1012.8
20260504185153 20 261 9.7 11.3 0.00 0.00 0.00 41 1012.9
20260504184649 20 289 6.4 8.0 0.00 0.00 0.00 40 1012.9
20260504184144 20 248 8.0 9.7 0.00 0.00 0.00 43 1012.8
20260504183642 20 286 9.7 11.3 0.00 0.00 0.00 44 1012.9
20260504183139 20 239 6.4 8.0 0.00 0.00 0.00 48 1013.2
20260504182637 20 295 6.4 9.7 0.00 0.00 0.00 40 1012.9
20260504182134 20 297 12.9 12.9 0.00 0.00 0.00 41 1013.1
20260504181631 20 106 3.2 3.2 0.00 0.00 0.00 40 1013.2
20260504181129 20 299 4.8 8.0 0.00 0.00 0.00 42 1012.7
20260504180628 20 261 3.2 3.2 0.00 0.00 0.00 41 1013.1
20260504180126 20 10 3.2 4.8 0.00 0.00 0.00 41 1013.1
20260504175623 20 356 1.6 1.6 0.00 0.00 0.00 40 1013.2
20260504175120 20 275 8.0 9.7 0.00 0.00 0.00 41 1013.1
20260504174618 19 335 3.2 4.8 0.00 0.00 0.00 42 1013.1
20260504174114 19 236 6.4 8.0 0.00 0.00 0.00 48 1013.2
20260504173611 18 38 3.2 3.2 0.00 0.00 0.00 45 1012.9
20260504173109 18 267 8.0 9.7 0.00 0.00 0.00 42 1013.3
20260504172605 18 208 3.2 3.2 0.00 0.00 0.00 41 1013.1
20260504172102 19 269 6.4 8.0 0.00 0.00 0.00 42 1013.2